Other Public Products
Issued by NWS Grand Forks, ND

Home | Current Version | Previous Version | Graphics & Text | Print | Product List | Glossary On
Versions: 1 2 3 4 5 6 7 8 9 10 11 12 13 14 15 16 17 18 19 20 21 22 23 24 25 26 27 28 29 30 31 32 33 34 35 36 37 38 39 40 41 42 43 44 45 46 47 48 49 50
000
FPUS83 KFGF 280310
OPUFGF
PRAIRIE TO PINES WEATHER ROUNDUP
NATIONAL WEATHER SERVICE EASTERN NORTH DAKOTA/GRAND FORKS ND
1000 PM CDT MON JUL 27 2015

 **SATELLITE DATA USED TO AUGMENT SKY COVER AT AUTOMATED STATIONS**
 *****  WEATHER ACROSS EASTERN NORTH DAKOTA  *****

CITY           SKY/WX    TMP DP  RH WIND       PRES   REMARKS
GRAND FORKS    PTCLDY    79  72  79 SE10      29.74R
GRAND FORKS AF CLEAR     78  73  85 S8        29.75R
GRAND CITY NWS   N/A     79 N/A N/A SE12        N/A
BUXTON         NOT AVBL
DEVILS LAKE    PTCLDY    79  68  69 SE15      29.70R
FARGO          CLEAR     81  71  71 SE13G18   29.76R
WAHPETON ARPT  CLEAR     77  70  78 SE8       29.79R
$$

 *****  WEATHER ACROSS CENTRAL AND WESTERN NORTH DAKOTA  *****

CITY           SKY/WX    TMP DP  RH WIND       PRES   REMARKS
JAMESTOWN      PTCLDY    79  74  84 SE18G25   29.72R
BISMARCK       CLOUDY    83  71  67 S17       29.69R
MINOT          CLOUDY    81  69  67 SE14      29.59F
MINOT AFB      CLOUDY    79  73  81 SE15      29.57F
GARRISON         N/A     79  71  76 SE12      29.60F
WILLISTON      LGT RAIN  67  63  87 NW9       29.57R
DICKINSON      CLOUDY    75  54  47 S25G38    29.61R
HETTINGER      CLOUDY    68  58  70 SE20G28   29.69R
$$

 *****  OTHER OBSERVATIONS NORTHEAST NORTH DAKOTA  *****

CITY           SKY/WX    TMP DP  RH WIND       PRES   REMARKS
WALHALLA       FAIR      75  75 100 MISG      29.74F
LANGDON        FAIR      75  72  88 E12       29.75F
CAVALIER       FAIR      75  73  94 SE6       29.75S
GRAFTON        FAIR      75  73  94 E8        29.75S
CANDO          NOT AVBL
FORT TOTTEN      N/A     78  71  79 SE8       29.95S
ROLLA          CLOUDY    75  73  94 SE13      29.73S
RUGBY          NOT AVBL
 ***** THE ABOVE OBSERVATIONS ARE NON NWS ARE NOT QUALITY
        CONTROLLED AND MAY MIS-REPORT RAIN FOR SNOW...
$$

 *****  OTHER OBSERVATIONS SOUTHEAST NORTH DAKOTA *****

CITY           SKY/WX    TMP DP  RH WIND       PRES   REMARKS
COOPERSTOWN    NOT AVBL
VALLEY CITY    FAIR      79  79 100 SE15G22   29.75R
OAKES            N/A     75  73  94 SE9       29.76R
GWINNER          N/A     81  77  89 SE13      29.77R
SHEYENNE NWR     N/A     78  73  84 SE9       29.95
BUFFALO        NOT AVBL
WYNDMERE         N/A     79  73  83 SE8         N/A
 ***** THE ABOVE OBSERVATIONS ARE NON NWS ARE NOT QUALITY
       CONTROLLED AND MAY MIS-REPORT RAIN FOR SNOW...
$$

  *****  WEATHER ACROSS NORTHERN MINNESOTA  *****

CITY           SKY/WX    TMP DP  RH WIND       PRES   REMARKS
FLAG ISLAND    CLEAR     81  73  78 S10       29.83S
WARROAD        CLEAR     79  72  78 SE7       29.84S
ROSEAU         CLEAR     75  70  83 SE6       29.82S
HALLOCK        CLEAR     75  72  88 E9        29.76S
THF RVR FALLS  CLEAR     75  70  83 E9        29.81R
HALSTAD        NOT AVBL
FOSSTON        CLEAR     73  68  83 CALM      29.83R
BAUDETTE       CLEAR     76  66  71 SE7       29.86R
WASKISH        CLEAR     73  68  83 E3        29.87R
CROOKSTON      CLEAR     79  72  78 SE8       29.77S
$$
  *****  WEATHER ACROSS CENTRAL AND WEST MINNESOTA  *****

CITY           SKY/WX    TMP DP  RH WIND       PRES   REMARKS
BEMIDJI        PTCLDY    76  70  81 SE12      29.86R
PARK RAPIDS    CLEAR     79  70  74 SE9       29.86R
WADENA         CLEAR     75  70  83 SE8       29.86R
DETROIT LAKES  CLEAR     79  70  73 SE16      29.84R
MOORHEAD       CLEAR     79  72  78 SE8       29.78R
FERGUS FALLS   CLEAR     79  72  78 SE13G21   29.80R
ELBOW LAKE     FAIR      77  73  86 SE10G16   29.82R
MORRIS MN      CLEAR     77  72  83 SE12      29.82R
STAPLES        CLEAR     75  70  83 SE6       29.87R
WHEATON        CLEAR     75  70  83 SE15      29.81R
$$
  *****  WEATHER ELSEWHERE ACROSS MINNESOTA  *****

CITY           SKY/WX    TMP DP  RH WIND       PRES   REMARKS
DULUTH         PTCLDY    73  63  70 SE6       29.96R
INTRNTL FALLS  CLEAR     73  66  78 SE5       29.89R
ELY            CLEAR     73  57  56 SE7       29.96R
CLOQUET        PTCLDY    73  64  73 E5        29.95S
BRAINERD       CLEAR     76  70  82 SE6       29.89R
HIBBING        CLEAR     70  64  81 SE5       29.94R
ALEXANDRIA     CLEAR     76  72  87 SE12      29.87R
SAINT CLOUD    CLEAR     77  72  84 SE6       29.87R
MINNEAPOLIS    PTCLDY    80  71  74 SE10      29.91R
$$

  *****  WEATHER ACROSS SOUTH DAKOTA  *****

CITY           SKY/WX    TMP DP  RH WIND       PRES   REMARKS
SIOUX FALLS    PTCLDY    80  73  79 S16G23    29.81R
BROOKINGS      CLEAR     77  72  83 SE12      29.83R
WATERTOWN      CLEAR     77  70  79 SE7       29.81R
HURON          CLEAR     80  75  84 SE10      29.74R
SISSETON         N/A     78  71  79 S16G23    29.77R
ABERDEEN       CLEAR     80  71  74 SE10      29.73R
MITCHELL       CLEAR     81  71  71 SE9       29.75R
PIERRE         PTCLDY    84  69  60 SE12      29.64S
MOBRIDGE       CLOUDY    82  76  81 SE13      29.69R
RAPID CITY     CLOUDY    66  63  90 NW13      29.70R
$$

  *****  SOME WEATHER IN NEARBY STATES *****

CITY           SKY/WX    TMP DP  RH WIND       PRES   REMARKS
GLASGOW MT     CLOUDY    59  54  83 NW31G46   29.66R THUNDER
GREAT FALLS MT LGT RAIN  50  48  93 SW13      29.97F
CHEYENNE WY    PTCLDY    78  35  21 W14       29.94R
SCOTTSBLUFF NE MOCLDY    73  64  73 VRB3      29.74S
OMAHA NE       PTCLDY    78  71  79 SE14      29.85R
DES MOINES IA  PTCLDY    74  68  81 S8        29.91R
DAVENPORT IA   CLOUDY    76  72  87 E5        29.97R
CHICAGO IL     MOCLDY    76  65  68 E7        30.01R
EAU CLAIRE WI  CLEAR     78  68  71 SE5       29.95R
LA CROSSE WI   CLEAR     77  70  79 SE5       29.95R
$$

  *****  SOME NATIONAL WEATHER *****

CITY           SKY/WX    TMP DP  RH WIND       PRES   REMARKS
LA GUARDIA NY  MOCLDY    79  67  66 SW6       30.01S
RALEIGH NC     PTCLDY    80  70  71 SE6       30.02R
ATLANTA GA     MOCLDY    84  70  62 N7        29.99R
NEW ORLEANS LA PTCLDY    84  73  69 S8        29.95R HX  90
OKLAHOMA CITY  PTCLDY    81  72  74 S8        29.90R
ALBUQUERQUE NM CLOUDY    86  49  27 S9        30.05R
SALT LAKE CITY PTCLDY    71  41  33 N9        30.07R
LOS ANGELES CA PTCLDY    69  64  84 W12       29.89R
BOISE ID       CLEAR     70  31  23 NW9       30.11R
SEATTLE WA     MOCLDY    70  49  47 NW5       30.22S
$$

*** WEATHER ACROSS MANITOBA...SASKATCHEWAN AND ONTARIO ***
                ***ONTARIO***

CITY           SKY/WX    TMP DP  RH WIND       PRES   REMARKS
GERALDTON      PTCLDY    73  64  73 S5        29.95R
THUNDER BAY    CLEAR     66  63  88 E3        29.96R
SIOUX LOOKOUT  PTCLDY    66  64  94 CALM      29.91R
TORONTO        CLEAR     79  59  50 NW8       30.01R
BIG TROUT LK   CLEAR     68  57  68 NW5       29.86R
PICKLE LAKE    NOT AVBL
DRYDEN         CLEAR     79  63  57 S3        29.91R
KENORA         PTCLDY    79  64  61 SE7       29.88S
$$
                *** MANITOBA***

CITY           SKY/WX    TMP DP  RH WIND       PRES   REMARKS
BRANDON        CLOUDY    77  70  78 E14G22    29.71F THUNDER
DAUPHIN        CLOUDY    68  61  77 E6        29.76F
ISLAND LAKE    CLOUDY    72  61  68 CALM      29.87S
PILOT MOUND      N/A     73  70  88 E9          N/A
THE PAS        PTCLDY    64  55  72 NW2       29.84F
THOMPSON       MOCLDY    66  57  72 CALM      29.85R
WINNIPEG       PTCLDY    79  72  78 SE9       29.78S
LYNN LAKE      PTCLDY    66  54  63 S3        29.82F
CHURCHILL      PTCLDY    63  59  88 NE5       29.74S
GILLAM         MOCLDY    70  57  64 SW3       29.82S
$$
                ***SASKATCHEWAN***

CITY           SKY/WX    TMP DP  RH WIND       PRES   REMARKS
ESTEVAN        NOT AVBL
KINDERSLEY     LGT RAIN  59  57  94 N10       29.85F
LLOYDMINSTER   CLOUDY    63  55  77 N3        29.92S
PRINCE ALBERT  MOCLDY    63  59  88 N6        29.83F
REGINA         TSTM      63  59  88 NE20      29.63F



USA.gov is the U.S. government's official web portal to all federal, state and local government web resources and services.